This is the latest recevied weather packets stored in our database for station/object N6DZK. If no packets are shown the sender has not sent any weather packets the latest 10 day(s).
| Time | Temp. | Humidity | Pressure | Rain* | Wind** | Luminosity | Snow |
|---|---|---|---|---|---|---|---|
| 1778077312 | 11.11° C | 94% | 1020.9 hPa | 0 mm | - | 63 W/m² | - |
| 1778077010 | 11.67° C | 95% | 1020.8 hPa | 0 mm | - | 59 W/m² | - |
| 1778076708 | 11.67° C | 96% | 1020.6 hPa | 0 mm | - | 57 W/m² | - |
| 1778076405 | 11.67° C | 97% | 1020.7 hPa | 0 mm | - | 69 W/m² | - |
| 1778076102 | 10.56° C | 97% | 1020.5 hPa | 0 mm | - | 61 W/m² | - |
| 1778075799 | 9.44° C | 97% | 1020.4 hPa | 0 mm | - | 56 W/m² | - |
| 1778075495 | 9.44° C | 97% | 1020.3 hPa | 0 mm | - | 43 W/m² | - |
| 1778075192 | 8.89° C | 96% | 1020.4 hPa | 0 mm | - | 36 W/m² | - |
| 1778074888 | 8.89° C | 96% | 1020.1 hPa | 0 mm | - | 28 W/m² | - |
| 1778074585 | 8.89° C | 96% | 1020.3 hPa | 0 mm | - | 24 W/m² | - |
| 1778074282 | 8.89° C | 96% | 1020.1 hPa | 0 mm | - | 19 W/m² | - |
| 1778073979 | 8.89° C | 96% | 1020.1 hPa | 0 mm | - | 16 W/m² | - |
| 1778073676 | 8.89° C | 96% | 1020 hPa | 0 mm | - | 12 W/m² | - |
| 1778073374 | 8.89° C | 96% | 1020 hPa | 0 mm | - | 8 W/m² | - |
| 1778073070 | 8.89° C | 96% | 1020.1 hPa | 0 mm | - | 5 W/m² | - |
| 1778072767 | 8.89° C | 96% | 1019.9 hPa | 0 mm | - | 3 W/m² | - |
| 1778072464 | 8.89° C | 96% | 1019.9 hPa | 0 mm | - | 2 W/m² | - |
| 1778072163 | 8.89° C | 96% | 1020 hPa | 0 mm | - | 1 W/m² | - |
| 1778071860 | 8.89° C | 96% | 1019.8 hPa | 0 mm | - | 0 W/m² | - |
| 1778071558 | 8.89° C | 96% | 1019.8 hPa | 0 mm | - | 0 W/m² | - |
| 1778071255 | 8.89° C | 95% | 1019.7 hPa | 0 mm | - | 0 W/m² | - |
| 1778070953 | 8.89° C | 95% | 1019.7 hPa | 0 mm | - | 0 W/m² | - |
| 1778070651 | 8.89° C | 95% | 1019.6 hPa | 0 mm | - | 0 W/m² | - |
| 1778070347 | 8.89° C | 95% | 1019.6 hPa | 0 mm | - | 0 W/m² | - |
| 1778070045 | 8.89° C | 95% | 1019.7 hPa | 0 mm | - | 0 W/m² | - |
* Rain latest hour (hover to see other rain measurements)
** Current wind speed in m/s (hover to see current wind gust speed)